Printer-friendly version

IAU Minor Planet Center

Minor Planet Center

MPEC 2002-F12 : 2002 EX11

The following Minor Planet Electronic Circular may be linked-to from your own Web pages, but must not otherwise be redistributed electronically.


Read MPEC 2002-F11 Read MPEC 2002-F13


M.P.E.C. 2002-F12                                Issued 2002 Mar. 18, 16:35 UT

     The Minor Planet Electronic Circulars contain information on unusual
         minor planets and routine data on comets.  They are published
   on behalf of Commission 20 of the International Astronomical Union by the
          Minor Planet Center, Smithsonian Astrophysical Observatory,
                          Cambridge, MA 02138, U.S.A.

             Prepared using the Tamkin Foundation Computer Network

                              MPC@CFA.HARVARD.EDU
          URL http://cfa-www.harvard.edu/iau/mpc.html  ISSN 1523-6714

                                   2002 EX11

Observations:
     K02E11X* C2002 03 15.10869 08 20 40.58 +14 31 42.2          18.6        704
     K02E11X  C2002 03 15.12116 08 20 44.01 +14 31 41.5          19.1        704
     K02E11X  C2002 03 15.13402 08 20 47.51 +14 31 40.6          19.0        704
     K02E11X  C2002 03 15.14675 08 20 51.04 +14 31 39.3          19.1        704
     K02E11X  C2002 03 15.15935 08 20 54.49 +14 31 38.2          19.1        704
     K02E11X  C2002 03 16.17107 08 25 46.27 +14 29 54.0          19.2        704
     K02E11X  C2002 03 16.18393 08 25 49.78 +14 29 51.1          19.0        704
     K02E11X  C2002 03 16.18608 08 25 50.33 +14 29 51.9          19.4        704
     K02E11X  C2002 03 16.19664 08 25 53.23 +14 29 50.4          19.1        704
     K02E11X  C2002 03 16.19978 08 25 54.13 +14 29 49.8          19.6        704
     K02E11X  C2002 03 16.20941 08 25 56.75 +14 29 48.3          19.1        704
     K02E11X  C2002 03 16.21319 08 25 57.82 +14 29 49.0          19.4        704
     K02E11X  C2002 03 16.22222 08 26 00.24 +14 29 46.5          19.5        704
     K02E11X  C2002 03 16.22697 08 26 01.46 +14 29 46.3          19.6        704
     K02E11X  C2002 03 16.43670 08 27 03.76 +14 29 17.1          18.7 R      344
     K02E11X  C2002 03 16.47266 08 27 13.66 +14 29 12.4          18.6 R      344
     K02E11X  C2002 03 17.10855 08 30 16.71 +14 27 47.6          18.2        704
     K02E11X  C2002 03 17.12184 08 30 20.37 +14 27 44.4          19.6        704
     K02E11X  C2002 03 17.13547 08 30 24.06 +14 27 41.4          20.0        704
     K02E11X  C2002 03 17.14891 08 30 27.75 +14 27 40.5          19.3        704
     K02E11X FC2002 03 17.42273 08 31 46.46 +14 27 39.1          18.8 V      422
     K02E11X  C2002 03 17.53109 08 32 16.86 +14 26 38.0          19.0 R      344
     K02E11X  C2002 03 17.54135 08 32 19.65 +14 26 36.2          19.1 R      344
     K02E11X  C2002 03 17.80381 08 33 35.56 +14 25 45.3          18.2 R      246
     K02E11X  C2002 03 17.80632 08 33 36.22 +14 25 44.8                      246
     K02E11X  C2002 03 17.80737 08 33 36.43 +14 25 44.1                      246
     K02E11X  C2002 03 17.83370 08 33 43.71 +14 25 40.1                      557
     K02E11X  C2002 03 17.83487 08 33 44.13 +14 25 38.7                      557
     K02E11X  C2002 03 17.83604 08 33 44.37 +14 25 39.1                      557
     K02E11X  C2002 03 18.16380 08 35 18.38 +14 24 51.5          19.5 R      651
     K02E11X  C2002 03 18.16760 08 35 19.39 +14 24 50.7          19.8 R      651
     K02E11X  C2002 03 18.16987 08 35 20.01 +14 24 50.3          19.8 R      651

Observer details:
246 Klet Observatory-KLENOT.  Observers J. Ticha, M. Tichy, M. Kocer.  1.06-m
    KLENOT telescope + CCD.
344 Bohyunsan Optical Astronomy Observatory.  Observers J.-B. Jeon.  1.8-m
    f/8 reflector + CCD.
422 Loomberah.  Observer G. J. Garradd.  0.45-m f/5.4 reflector + CCD.
557 Ondrejov.  Observer L. Sarounova.  0.65-m f/3.6 reflector + CCD.
651 Grasslands Observatory, Tucson.  Observer J. E. McGaha.  0.62-m f/5.1
    reflector + CCD.
704 Lincoln Laboratory ETS, New Mexico.  Observers M. Blythe, F. Shelly,
    M. Bezpalko, R. Huber, L. Manguso, S. Adams, J. Piscitelli.  Measurers
    J. Stuart, R. Sayer, J. B. Evans, H. Viggh.  1.0-m f/2.15 reflector + CCD.

Orbital elements:
2002 EX11
Epoch 2002 Mar. 7.0 TT = JDT 2452340.5                  MPC
M   6.07290              (2000.0)            P               Q
n   0.37115554     Peri.  314.79718     -0.78774504     -0.61597644
a   1.9176327      Node   187.18623     +0.57695043     -0.73462091
e   0.4176069      Incl.    2.54185     +0.21583780     -0.28443831
P   2.66           H   20.7           G   0.15
From 32 observations 2002 Mar. 15-18.

Ephemeris:
2002 EX11                a,e,i = 1.92, 0.42, 3                   q = 1.1168
Date    TT    R. A. (2000) Decl.     Delta      r     Elong.  Phase     V
2002 03 07    07 41.67   +14 25.8    0.204    1.130   128.2    43.6    19.2
2002 03 17    08 29.74   +14 28.3    0.223    1.150   129.8    41.6    19.4
2002 03 27    09 16.02   +13 38.4    0.253    1.179   131.1    39.6    19.6
2002 04 06    09 57.40   +12 08.0    0.294    1.215   131.3    38.2    20.0
2002 04 16    10 33.13   +10 13.1    0.348    1.257   130.3    37.5    20.4
2002 04 26    11 03.96   +08 05.5    0.414    1.304   128.4    37.2    20.9
2002 05 06    11 30.87   +05 53.0    0.491    1.355   125.7    37.2    21.3
2002 05 16    11 54.95   +03 39.8    0.579    1.408   122.4    37.3    21.8
2002 05 26    12 17.09   +01 27.6    0.677    1.464   118.7    37.4    22.2

Timothy B. Spahr             (C) Copyright 2002 MPC           M.P.E.C. 2002-F12

Read MPEC 2002-F11 Read MPEC 2002-F13


Our Web policy. Index to the CBAT/MPC/ICQ pages.


Valid HTML 4.01!